TimeEDT,TemperatureF,Dew PointF,Humidity,Sea Level PressureIn,VisibilityMPH,Wind Direction,Wind SpeedMPH,Gust SpeedMPH,PrecipitationIn,Events,Conditions,WindDirDegrees,DateUTC
12:53 AM,60.1,52.0,75,30.26,10.0,Calm,Calm,-,N/A,,Overcast,0,2014-05-15 04:53:00
1:37 AM,60.1,54.0,80,30.26,10.0,Calm,Calm,-,N/A,,Overcast,0,2014-05-15 05:37:00
1:53 AM,60.1,54.0,80,30.26,10.0,Calm,Calm,-,N/A,,Overcast,0,2014-05-15 05:53:00
2:30 AM,60.1,54.0,80,30.26,9.0,Calm,Calm,-,N/A,,Overcast,0,2014-05-15 06:30:00
2:53 AM,59.0,55.9,90,30.26,10.0,SSE,3.5,-,N/A,,Overcast,160,2014-05-15 06:53:00
3:53 AM,60.1,57.9,93,30.25,8.0,South,4.6,-,N/A,,Overcast,180,2014-05-15 07:53:00
4:31 AM,61.0,57.9,90,30.24,9.0,Calm,Calm,-,N/A,,Overcast,0,2014-05-15 08:31:00
4:42 AM,61.0,57.9,90,30.24,9.0,Calm,Calm,-,N/A,,Overcast,0,2014-05-15 08:42:00
4:53 AM,61.0,57.9,90,30.24,9.0,Calm,Calm,-,N/A,,Overcast,0,2014-05-15 08:53:00
5:53 AM,62.1,57.9,86,30.24,9.0,Calm,Calm,-,N/A,,Overcast,0,2014-05-15 09:53:00
6:53 AM,63.0,59.0,87,30.25,6.0,Calm,Calm,-,N/A,,Overcast,0,2014-05-15 10:53:00
7:48 AM,62.6,60.8,94,30.25,5.0,South,9.2,-,0.00,Rain,Light Rain,170,2014-05-15 11:48:00
7:53 AM,63.0,60.1,90,30.25,6.0,SSE,10.4,-,0.00,Rain,Light Rain,150,2014-05-15 11:53:00
8:53 AM,64.9,60.1,84,30.25,10.0,SSE,8.1,-,0.00,,Overcast,160,2014-05-15 12:53:00
9:53 AM,66.9,61.0,81,30.23,10.0,South,10.4,-,N/A,,Overcast,170,2014-05-15 13:53:00
10:53 AM,69.1,61.0,75,30.23,10.0,South,11.5,-,N/A,,Overcast,170,2014-05-15 14:53:00
11:04 AM,70.0,62.1,76,30.23,10.0,South,10.4,-,N/A,,Overcast,170,2014-05-15 15:04:00
11:53 AM,72.0,62.1,71,30.22,10.0,SSE,12.7,-,N/A,,Overcast,150,2014-05-15 15:53:00
12:40 PM,75.0,63.0,66,30.21,10.0,South,18.4,24.2,0.00,,Mostly Cloudy,170,2014-05-15 16:40:00
12:53 PM,73.9,62.1,66,30.21,10.0,SSE,13.8,23.0,0.00,,Mostly Cloudy,160,2014-05-15 16:53:00
1:03 PM,73.0,62.1,68,30.21,10.0,SSE,13.8,21.9,N/A,,Mostly Cloudy,150,2014-05-15 17:03:00
1:28 PM,73.0,63.0,71,30.21,10.0,SSE,11.5,-,N/A,,Overcast,160,2014-05-15 17:28:00
1:53 PM,73.9,64.0,71,30.20,10.0,South,10.4,-,N/A,,Mostly Cloudy,170,2014-05-15 17:53:00
2:01 PM,75.0,64.0,69,30.20,10.0,SSE,15.0,20.7,N/A,,Mostly Cloudy,160,2014-05-15 18:01:00
3:08 PM,73.9,63.0,68,30.18,10.0,South,12.7,21.9,N/A,,Overcast,170,2014-05-15 19:08:00
3:53 PM,73.9,62.1,66,30.17,10.0,South,15.0,25.3,N/A,,Overcast,170,2014-05-15 19:53:00
4:53 PM,75.0,62.1,64,30.16,10.0,SSE,15.0,-,N/A,,Mostly Cloudy,160,2014-05-15 20:53:00
5:51 PM,73.4,62.6,69,30.16,10.0,South,12.7,-,N/A,,Overcast,170,2014-05-15 21:51:00
5:53 PM,73.0,63.0,71,30.17,10.0,South,10.4,-,N/A,,Overcast,170,2014-05-15 21:53:00
6:23 PM,71.1,63.0,75,30.16,10.0,South,11.5,18.4,N/A,,Overcast,170,2014-05-15 22:23:00
6:53 PM,70.0,63.0,78,30.17,10.0,South,10.4,-,N/A,,Overcast,170,2014-05-15 22:53:00
7:29 PM,69.1,62.1,78,30.17,10.0,SSE,6.9,-,N/A,,Overcast,160,2014-05-15 23:29:00
7:53 PM,69.1,63.0,81,30.17,8.0,SSE,8.1,-,N/A,,Overcast,150,2014-05-15 23:53:00
8:10 PM,68.0,63.0,84,30.17,5.0,SSE,10.4,-,0.01,Rain,Rain,160,2014-05-16 00:10:00
8:53 PM,66.9,64.0,90,30.17,8.0,South,8.1,-,0.02,Rain,Light Rain,170,2014-05-16 00:53:00
9:09 PM,66.0,64.0,93,30.17,1.8,SSE,9.2,-,0.06,Rain,Heavy Rain,150,2014-05-16 01:09:00
9:11 PM,66.0,64.0,93,30.17,2.0,SE,10.4,-,0.07,Rain,Heavy Rain,140,2014-05-16 01:11:00
9:18 PM,66.0,64.0,93,30.17,4.0,SE,6.9,-,0.07,Rain,Light Rain,140,2014-05-16 01:18:00
9:31 PM,66.0,64.0,93,30.18,10.0,SSE,5.8,-,0.08,,Overcast,160,2014-05-16 01:31:00
9:51 PM,66.2,62.6,88,30.17,10.0,SSE,6.9,-,0.08,,Overcast,160,2014-05-16 01:51:00
9:53 PM,66.0,63.0,90,30.17,10.0,SSE,4.6,-,0.08,Rain,Light Rain,160,2014-05-16 01:53:00
10:33 PM,64.9,63.0,93,30.16,9.0,SSE,8.1,-,0.00,,Overcast,160,2014-05-16 02:33:00
10:53 PM,64.9,63.0,93,30.16,9.0,SSE,9.2,-,0.00,,Overcast,150,2014-05-16 02:53:00
11:53 PM,64.9,63.0,93,30.14,8.0,SSE,8.1,-,0.00,,Overcast,160,2014-05-16 03:53:00